Flag for Ireland Weather past 2 weeks in Galway, Ireland

Now
61 °F

Broken clouds.


Feels Like: 61 °F
Forecast: 53 / 65 °F
Wind: 16 mph from West

Location: Shannon Airport

Current Time: Aug 30, 2014 at 11:48:57 AM

Latest Report: Aug 30, 2014 at 11:30 AM


Visibility: N/A

Pressure: 30.04 "Hg

Humidity: 72%

Dew point: 52 °F

Location of GalwayLocation

Historic Weather in Galway — Graph

°F

Galway temperature yesterday

Maximum temperature yesterday: 64 °F (at 4:00 PM)
Minimum temperature yesterday: 57 °F (at 12:30 AM)
Average temperature yesterday: 59 °F

Past Weeks' High & Low Weather Summary

 TemperatureHumidityPressure
High72 °F (Aug 25, 2:30 PM)100% (Aug 17, 12:00 AM)30.24 "Hg (Aug 17, 12:00 AM)
Low43 °F (Aug 23, 3:30 AM)40% (Aug 23, 4:00 PM)29.36 "Hg (Aug 25, 5:00 PM)
Average58 °F75%29.90 "Hg
* Reported Aug 15 10:00 AM — Aug 30 10:30 AM, Galway, Weather by CustomWeather, © 2014

Note: Actual official high and low records may vary slightly from our data, if they occured in-between our weather recording intervals... More about our weather records

Advertising

Galway weather history for previous 24 hours

 ConditionsComfort  
Time TempWeatherWind HumidityBarometerVisibility
10:30 AM
Aug 30
59 °FBroken clouds.13 mph88%30.04 "HgN/A
10:00 AM59 °FLight rain. Broken clouds.12 mph88%30.04 "HgN/A
9:30 AM59 °FDrizzle. Partly sunny.12 mph88%30.01 "Hg5 mi
9:00 AM59 °FBroken clouds.12 mph82%30.01 "HgN/A
8:30 AM59 °FBroken clouds.12 mph82%30.01 "HgN/A
8:00 AM57 °FBroken clouds.9 mph88%29.98 "HgN/A
7:30 AM57 °FPartly cloudy.13 mph88%29.98 "HgN/A
7:00 AM57 °FPartly cloudy.12 mph88%29.98 "HgN/A
6:30 AM57 °FPassing clouds.12 mph88%29.98 "HgN/A
6:00 AM57 °FPartly cloudy.9 mph88%29.95 "HgN/A
5:30 AM57 °FPassing clouds.13 mph88%29.95 "HgN/A
5:00 AM57 °FPartly cloudy.10 mph88%29.95 "HgN/A
4:30 AM57 °FPassing clouds.9 mph88%29.95 "HgN/A
4:00 AM57 °FPassing clouds.7 mph88%29.95 "HgN/A
3:30 AM57 °FPartly cloudy.12 mph88%29.95 "HgN/A
3:00 AM57 °FPartly cloudy.9 mph88%29.95 "HgN/A
2:30 AM57 °FPartly cloudy.12 mph88%29.95 "HgN/A
2:00 AM57 °FPassing clouds.12 mph88%29.92 "HgN/A
1:30 AM57 °FPassing clouds.10 mph82%29.92 "HgN/A
1:00 AM57 °FPartly cloudy.7 mph82%29.92 "HgN/A
12:30 AM57 °FLight rain. Partly cloudy.9 mph77%29.92 "HgN/A
12:00 AM57 °FPartly cloudy.9 mph77%29.89 "HgN/A
11:30 PM
Aug 29
57 °FPassing clouds.9 mph77%29.89 "HgN/A
11:00 PM59 °FPassing clouds.14 mph72%29.89 "HgN/A
10:30 PM59 °FPassing clouds.14 mph72%29.89 "HgN/A
10:00 PM59 °FPassing clouds.15 mph72%29.86 "HgN/A
8:00 PM59 °FBroken clouds.17 mph72%29.83 "HgN/A
7:30 PM59 °FPartly sunny.18 mph72%29.83 "HgN/A
7:00 PM61 °FPassing clouds.24 mph68%29.80 "HgN/A
6:30 PM63 °FBroken clouds.18 mph73%29.80 "HgN/A
6:00 PM61 °FBroken clouds.15 mph77%29.80 "HgN/A
5:30 PM61 °FBroken clouds.17 mph77%29.80 "HgN/A
5:00 PM61 °FDrizzle. Partly sunny.21 mph77%29.80 "Hg4 mi
4:30 PM63 °FBroken clouds.21 mph73%29.80 "HgN/A
4:00 PM64 °FScattered clouds.22 mph68%29.80 "HgN/A
3:30 PM63 °FBroken clouds.24 mph83%29.77 "HgN/A
3:00 PM63 °FBroken clouds.21 mph83%29.77 "HgN/A
2:30 PM61 °FDrizzle. Partly sunny.23 mph94%29.77 "Hg4 mi
2:00 PM61 °FDrizzle. Broken clouds.16 mph94%29.74 "Hg2 mi
1:30 PM61 °FDrizzle. Partly sunny.18 mph94%29.74 "Hg2 mi
1:00 PM61 °FDrizzle. Broken clouds.21 mph94%29.74 "Hg2 mi
12:30 PM61 °FDrizzle. Partly sunny.22 mph94%29.74 "Hg4 mi
12:00 PM61 °FDrizzle. Partly sunny.24 mph94%29.71 "Hg6 mi
11:30 AM61 °FDrizzle. Partly sunny.22 mph94%29.71 "Hg2 mi
11:00 AM59 °FDrizzle. Broken clouds.20 mph94%29.71 "Hg2 mi
Weather by CustomWeather, © 2014

See weather overviewHow to use our weather pages